TimeCST,TemperatureF,Dew PointF,Humidity,Sea Level PressureIn,VisibilityMPH,Wind Direction,Wind SpeedMPH,Gust SpeedMPH,PrecipitationIn,Events,Conditions,WindDirDegrees,DateUTC
12:15 AM,1.4,-5.8,72,30.47,10.0,North,3.5,-,N/A,,Mostly Cloudy,350,2014-02-10 06:15:00
12:35 AM,1.4,-5.8,72,30.46,10.0,Calm,Calm,-,N/A,,Mostly Cloudy,0,2014-02-10 06:35:00
12:55 AM,-0.4,-5.8,78,30.47,10.0,Calm,Calm,-,N/A,,Mostly Cloudy,0,2014-02-10 06:55:00
1:15 AM,-0.4,-5.8,78,30.47,10.0,Calm,Calm,-,N/A,,Overcast,0,2014-02-10 07:15:00
1:35 AM,-0.4,-7.6,72,30.48,10.0,Calm,Calm,-,N/A,,Scattered Clouds,0,2014-02-10 07:35:00
1:55 AM,-2.2,-7.6,78,30.49,10.0,Calm,Calm,-,N/A,,Clear,0,2014-02-10 07:55:00
2:15 AM,-2.2,-7.6,78,30.50,10.0,West,3.5,-,N/A,,Clear,280,2014-02-10 08:15:00
2:35 AM,-4.0,-7.6,85,30.52,10.0,WSW,3.5,-,N/A,,Clear,250,2014-02-10 08:35:00
2:55 AM,-4.0,-9.4,78,30.52,10.0,NNW,4.6,-,N/A,,Clear,330,2014-02-10 08:55:00
3:15 AM,-2.2,-5.8,85,30.51,10.0,North,8.1,-,N/A,,Clear,360,2014-02-10 09:15:00
3:35 AM,-4.0,-9.4,78,30.50,10.0,NNE,5.8,-,N/A,,Scattered Clouds,30,2014-02-10 09:35:00
3:55 AM,-2.2,-7.6,78,30.50,10.0,Calm,Calm,-,N/A,,Partly Cloudy,0,2014-02-10 09:55:00
4:15 AM,-2.2,-7.6,78,30.49,10.0,Calm,Calm,-,N/A,,Clear,0,2014-02-10 10:15:00
4:35 AM,-7.6,-11.2,84,30.50,10.0,Calm,Calm,-,N/A,,Clear,0,2014-02-10 10:35:00
4:55 AM,-4.0,-9.4,78,30.50,10.0,Calm,Calm,-,N/A,,Clear,0,2014-02-10 10:55:00
5:15 AM,-4.0,-9.4,78,30.51,10.0,Calm,Calm,-,N/A,,Clear,0,2014-02-10 11:15:00
5:35 AM,-5.8,-11.2,77,30.51,10.0,Calm,Calm,-,N/A,,Clear,0,2014-02-10 11:35:00
5:55 AM,-7.6,-13.0,77,30.51,10.0,Calm,Calm,-,N/A,,Clear,0,2014-02-10 11:55:00
6:15 AM,-5.8,-9.4,84,30.51,10.0,SSW,4.6,-,N/A,,Clear,210,2014-02-10 12:15:00
6:35 AM,-7.6,-11.2,84,30.50,10.0,SW,3.5,-,N/A,,Clear,220,2014-02-10 12:35:00
6:55 AM,-7.6,-13.0,77,30.52,10.0,Calm,Calm,-,N/A,,Clear,0,2014-02-10 12:55:00
7:15 AM,-11.2,-14.8,84,30.51,10.0,Calm,Calm,-,N/A,,Clear,0,2014-02-10 13:15:00
7:35 AM,-9.4,-13.0,84,30.52,10.0,Calm,Calm,-,N/A,,Clear,0,2014-02-10 13:35:00
7:55 AM,-9.4,-16.6,71,30.53,10.0,Calm,Calm,-,N/A,,Clear,0,2014-02-10 13:55:00
8:15 AM,-9.4,-14.8,77,30.53,10.0,Calm,Calm,-,N/A,,Clear,0,2014-02-10 14:15:00
8:35 AM,-7.6,-11.2,84,30.53,10.0,Calm,Calm,-,N/A,,Clear,0,2014-02-10 14:35:00
8:55 AM,-4.0,-9.4,78,30.54,10.0,Calm,Calm,-,N/A,,Clear,0,2014-02-10 14:55:00
9:15 AM,-0.4,-7.6,72,30.53,10.0,Calm,Calm,-,N/A,,Clear,0,2014-02-10 15:15:00
9:30 AM,-0.4,-7.6,72,30.54,10.0,Calm,Calm,-,N/A,,Clear,0,2014-02-10 15:30:00
9:55 AM,3.2,-5.8,66,30.54,10.0,Calm,Calm,-,N/A,,Clear,0,2014-02-10 15:55:00
10:15 AM,3.2,-4.0,72,30.55,10.0,NNW,6.9,-,N/A,,Clear,340,2014-02-10 16:15:00
10:35 AM,5.0,-4.0,66,30.54,10.0,North,6.9,-,N/A,,Clear,10,2014-02-10 16:35:00
10:55 AM,6.8,-4.0,61,30.54,10.0,North,6.9,-,N/A,,Clear,350,2014-02-10 16:55:00
11:15 AM,6.8,-4.0,61,30.54,10.0,NNW,6.9,-,N/A,,Clear,340,2014-02-10 17:15:00
11:35 AM,6.8,-4.0,61,30.54,10.0,North,5.8,-,N/A,,Clear,350,2014-02-10 17:35:00
11:55 AM,6.8,-2.2,67,30.53,10.0,Calm,Calm,-,N/A,,Clear,0,2014-02-10 17:55:00
12:15 PM,8.6,-2.2,62,30.52,10.0,NNW,5.8,-,N/A,,Clear,330,2014-02-10 18:15:00
12:35 PM,8.6,-2.2,62,30.50,10.0,NE,3.5,-,N/A,,Freezing Rain,50,2014-02-10 18:35:00
12:55 PM,8.6,-2.2,62,30.49,10.0,NW,4.6,-,N/A,,Clear,310,2014-02-10 18:55:00
1:15 PM,8.6,-2.2,62,30.47,10.0,NE,5.8,-,N/A,,Clear,50,2014-02-10 19:15:00
1:35 PM,8.6,-2.2,62,30.46,10.0,Calm,Calm,-,N/A,,Clear,0,2014-02-10 19:35:00
1:55 PM,10.4,-2.2,57,30.47,10.0,NE,3.5,-,N/A,,Clear,40,2014-02-10 19:55:00
2:15 PM,10.4,-2.2,57,30.47,10.0,NE,5.8,-,N/A,,Clear,40,2014-02-10 20:15:00
2:35 PM,10.4,-2.2,57,30.47,10.0,North,6.9,-,N/A,,Clear,360,2014-02-10 20:35:00
2:55 PM,10.4,-2.2,57,30.46,10.0,North,8.1,-,N/A,,Clear,360,2014-02-10 20:55:00
3:15 PM,10.4,-2.2,57,30.47,10.0,NNE,6.9,-,N/A,,Clear,30,2014-02-10 21:15:00
3:35 PM,10.4,-2.2,57,30.48,10.0,North,6.9,-,N/A,,Clear,10,2014-02-10 21:35:00
3:55 PM,10.4,-2.2,57,30.48,10.0,North,6.9,-,N/A,,Scattered Clouds,10,2014-02-10 21:55:00
4:15 PM,10.4,-2.2,57,30.48,10.0,North,4.6,-,N/A,,Mostly Cloudy,10,2014-02-10 22:15:00
4:35 PM,8.6,-2.2,62,30.48,10.0,North,5.8,-,N/A,,Mostly Cloudy,10,2014-02-10 22:35:00
4:55 PM,10.4,-2.2,57,30.48,10.0,NNE,5.8,-,N/A,,Overcast,20,2014-02-10 22:55:00
5:15 PM,8.6,-2.2,62,30.47,10.0,NNE,5.8,-,N/A,,Overcast,30,2014-02-10 23:15:00
5:35 PM,8.6,-2.2,62,30.47,10.0,NE,5.8,-,N/A,,Overcast,50,2014-02-10 23:35:00
5:55 PM,8.6,-2.2,62,30.48,10.0,NE,4.6,-,N/A,,Overcast,50,2014-02-10 23:55:00
6:15 PM,6.8,-2.2,67,30.49,5.0,NNE,3.5,-,N/A,,Haze,30,2014-02-11 00:15:00
6:35 PM,5.0,-4.0,66,30.50,10.0,NNE,4.6,-,N/A,,Clear,30,2014-02-11 00:35:00
6:55 PM,3.2,-4.0,72,30.51,-9999.0,Calm,Calm,-,N/A,,Mostly Cloudy,0,2014-02-11 00:55:00
7:15 PM,3.2,-4.0,72,30.50,10.0,Calm,Calm,-,N/A,,Overcast,0,2014-02-11 01:15:00
7:35 PM,3.2,-5.8,66,30.51,10.0,NNE,4.6,-,N/A,,Overcast,30,2014-02-11 01:35:00
7:55 PM,1.4,-5.8,72,30.51,10.0,Calm,Calm,-,N/A,,Scattered Clouds,0,2014-02-11 01:55:00
8:15 PM,3.2,-4.0,72,30.50,10.0,Calm,Calm,-,N/A,,Clear,0,2014-02-11 02:15:00
8:35 PM,1.4,-5.8,72,30.50,10.0,Calm,Calm,-,N/A,,Clear,0,2014-02-11 02:35:00
8:50 PM,-0.4,-5.8,78,30.50,10.0,Calm,Calm,-,N/A,,Clear,0,2014-02-11 02:50:00
9:15 PM,-0.4,-5.8,78,30.51,10.0,Calm,Calm,-,N/A,,Clear,0,2014-02-11 03:15:00
9:30 PM,-0.4,-7.6,72,30.50,10.0,Calm,Calm,-,N/A,,Clear,0,2014-02-11 03:30:00
9:55 PM,-2.2,-7.6,78,30.51,10.0,Calm,Calm,-,N/A,,Clear,0,2014-02-11 03:55:00
10:15 PM,-4.0,-9.4,78,30.51,10.0,Calm,Calm,-,N/A,,Clear,0,2014-02-11 04:15:00
10:35 PM,-5.8,-11.2,77,30.50,10.0,SSE,4.6,-,N/A,,Clear,160,2014-02-11 04:35:00
10:55 PM,-7.6,-13.0,77,30.50,10.0,Calm,Calm,-,N/A,,Partly Cloudy,0,2014-02-11 04:55:00
11:15 PM,-5.8,-11.2,77,30.51,10.0,Calm,Calm,-,N/A,,Mostly Cloudy,0,2014-02-11 05:15:00
11:35 PM,-4.0,-9.4,78,30.51,10.0,NE,3.5,-,N/A,,Overcast,40,2014-02-11 05:35:00
11:55 PM,-4.0,-9.4,78,30.50,10.0,NE,4.6,-,N/A,,Scattered Clouds,50,2014-02-11 05:55:00